Slayton, MN

5:36 PM CST on February 24, 2017 (GMT -0600)
Slayton

Weather History for KDVP - April, 2013

Change the Weather History Date:

Monday, April 22, 2013

  Actual Average (KOTG) Record (KOTG)
Temperature  
Mean Temperature 30 °F -  
Max Temperature 33 °F 57 °F 91 °F (1980)
Min Temperature 26 °F 36 °F 23 °F (1986)
Degree Days  
Heating Degree Days 35    
Moisture  
Dew Point 29 °F    
Average Humidity 96    
Maximum Humidity 99    
Minimum Humidity 90    
Precipitation  
Precipitation 0.04 in - - ()
Sea Level Pressure  
Sea Level Pressure 30.17 in    
Wind  
Wind Speed 15 mph (North)    
Max Wind Speed 26 mph    
Max Gust Speed 32 mph    
Visibility 6 miles    
Events Snow    
Averages and records for this station are not official NWS values.
T = Trace of Precipitation, MM = Missing Value Source: NWS Daily Summary

Daily Weather History Graph

Daily Weather History Graph

Search for Another Location

Airport or City:

Trip Planner

Search our weather history database for the weather conditions in past years. The results will help you decide how hot, cold, wet, or windy it might be!

Date:

Astronomy

Apr. 22, 2013 Rise Set
Actual Time 6:27 AM CDT 8:15 PM CDT
Civil Twilight 5:57 AM CDT 8:46 PM CDT
Nautical Twilight 5:19 AM CDT 9:24 PM CDT
Astronomical Twilight 4:39 AM CDT 10:05 PM CDT
Moon 5:00 PM CDT (4/22) 4:30 AM CDT (4/22)
Length of Visible Light 14h 49m
Length of Day
13h 47m
Waxing Gibbous, 88% of the Moon is Illuminated
Apr 22
Waxing Gibbous
Apr 25
Full
May 2
Last Quarter
May 9
New
May 17
First Quarter

Hourly Weather History & Observations

Time (CDT) Temp. Windchill Dew Point Humidity Pressure Visibility Wind Dir Wind Speed Gust Speed Precip Events Conditions
12:15 AM 34.0 °F 25.0 °F 32.0 °F 92% 30.17 in 10.0 mi North 12.7 mph 17.3 mph N/A   Overcast
12:35 AM 33.8 °F 25.3 °F 32.0 °F 93% 30.16 in 10.0 mi North 11.5 mph - N/A   Overcast
12:55 AM 33.6 °F 25.6 °F 32.0 °F 94% 30.17 in 10.0 mi North 10.4 mph - N/A   Overcast
1:15 AM 33.3 °F 25.1 °F 31.8 °F 94% 30.18 in 10.0 mi North 10.4 mph - N/A   Overcast
1:35 AM 33.3 °F 25.1 °F 31.5 °F 93% 30.18 in 10.0 mi North 10.4 mph - N/A   Overcast
1:55 AM 33.1 °F 26.1 °F 31.1 °F 92% 30.18 in 10.0 mi North 8.1 mph - N/A   Overcast
2:15 AM 32.9 °F 24.7 °F 30.7 °F 92% 30.18 in 10.0 mi North 10.4 mph - N/A   Overcast
2:35 AM 32.2 °F 23.8 °F 30.6 °F 94% 30.18 in 10.0 mi North 10.4 mph - N/A   Overcast
2:55 AM 32.0 °F 24.2 °F 30.2 °F 93% 30.18 in 10.0 mi North 9.2 mph - N/A   Overcast
3:15 AM 32.0 °F 24.8 °F 30.6 °F 94% 30.18 in 10.0 mi North 8.1 mph - N/A   Overcast
3:35 AM 32.0 °F 23.6 °F 30.4 °F 94% 30.17 in 10.0 mi North 10.4 mph - N/A   Overcast
3:55 AM 31.5 °F 22.9 °F 30.2 °F 95% 30.17 in 10.0 mi North 10.4 mph - N/A   Overcast
4:15 AM 31.1 °F 20.9 °F 30.0 °F 96% 30.17 in 10.0 mi North 13.8 mph - N/A   Overcast
4:35 AM 30.6 °F 20.2 °F 29.3 °F 95% 30.17 in 10.0 mi North 13.8 mph - N/A   Overcast
4:55 AM 30.0 °F 20.5 °F 29.1 °F 96% 30.17 in 10.0 mi North 11.5 mph - N/A   Overcast
5:15 AM 29.7 °F 18.6 °F 29.1 °F 98% 30.17 in 10.0 mi North 15.0 mph - N/A   Overcast
5:35 AM 29.5 °F 18.0 °F 29.1 °F 99% 30.17 in 10.0 mi North 16.1 mph 21.9 mph N/A   Overcast
5:55 AM 29.7 °F 17.8 °F 28.8 °F 96% 30.16 in 10.0 mi North 17.3 mph - N/A   Overcast
6:15 AM 29.7 °F 17.8 °F 28.4 °F 95% 30.17 in 10.0 mi North 17.3 mph 21.9 mph N/A   Overcast
6:35 AM 29.8 °F 19.8 °F 28.4 °F 94% 30.17 in 10.0 mi North 12.7 mph 20.7 mph N/A   Overcast
6:55 AM 29.7 °F 17.8 °F 28.4 °F 95% 30.16 in 10.0 mi NNE 17.3 mph 23.0 mph N/A   Overcast
7:15 AM 29.8 °F 19.8 °F 28.4 °F 94% 30.15 in 10.0 mi NNE 12.7 mph 21.9 mph N/A   Overcast
7:35 AM 30.2 °F 20.8 °F 28.8 °F 94% 30.16 in 10.0 mi North 11.5 mph - N/A   Overcast
7:55 AM 30.2 °F 21.9 °F 28.8 °F 94% 30.16 in 10.0 mi NNE 9.2 mph - N/A   Overcast
8:15 AM 31.1 °F 20.9 °F 29.1 °F 92% 30.17 in 10.0 mi NNE 13.8 mph 18.4 mph N/A   Overcast
8:35 AM 31.5 °F 21.4 °F 28.8 °F 90% 30.16 in 10.0 mi NE 13.8 mph 19.6 mph N/A   Overcast
8:55 AM 31.6 °F 22.6 °F 28.9 °F 90% 30.18 in 10.0 mi NNE 11.5 mph 18.4 mph N/A   Overcast
9:15 AM 31.6 °F 21.6 °F 29.1 °F 90% 30.18 in 10.0 mi NNE 13.8 mph 19.6 mph N/A   Overcast
9:35 AM 31.1 °F 20.1 °F 29.5 °F 94% 30.17 in 10.0 mi North 16.1 mph - N/A   Overcast
9:55 AM 30.7 °F 18.8 °F 29.7 °F 96% 30.17 in 10.0 mi North 18.4 mph 26.5 mph N/A   Overcast
10:15 AM 30.9 °F 19.1 °F 29.5 °F 94% 30.16 in 10.0 mi North 18.4 mph 24.2 mph N/A   Overcast
10:35 AM 30.9 °F 18.7 °F 29.5 °F 94% 30.15 in 5.0 mi North 19.6 mph 26.5 mph N/A Snow Light Snow
10:55 AM 30.2 °F 17.8 °F 29.3 °F 96% 30.14 in 1.5 mi North 19.6 mph 26.5 mph N/A Snow Light Snow
11:15 AM 30.2 °F 18.9 °F 29.3 °F 96% 30.16 in 2.5 mi North 16.1 mph 24.2 mph N/A Snow Light Snow
11:35 AM 30.6 °F 20.2 °F 29.7 °F 96% 30.17 in 1.2 mi North 13.8 mph 21.9 mph 0.01 in Snow Light Snow
11:55 AM 30.6 °F 19.4 °F 30.0 °F 98% 30.17 in 0.8 mi North 16.1 mph - 0.02 in Snow Light Snow
12:15 PM 30.6 °F 18.2 °F 30.2 °F 99% 30.16 in 0.5 mi North 19.6 mph - 0.01 in Snow Snow
12:35 PM 30.6 °F 18.6 °F 30.2 °F 99% 30.17 in 0.2 mi North 18.4 mph - 0.01 in Snow Snow
12:55 PM 30.7 °F 17.8 °F 30.6 °F 99% 30.15 in 0.2 mi North 21.9 mph - 0.01 in Snow Heavy Snow
1:15 PM 30.9 °F 19.4 °F 30.6 °F 99% 30.15 in 0.2 mi North 17.3 mph - N/A Snow Heavy Snow
1:35 PM 30.9 °F 20.2 °F 30.6 °F 99% 30.14 in 0.2 mi North 15.0 mph - 0.01 in Snow Heavy Snow
1:55 PM 30.9 °F 18.7 °F 30.2 °F 97% 30.14 in - North 19.6 mph 23.0 mph 0.01 in   Overcast
2:15 PM 31.1 °F 19.3 °F 30.4 °F 97% 30.14 in - North 18.4 mph - N/A Snow Snow
2:35 PM 31.1 °F 18.6 °F 30.2 °F 96% 30.13 in - North 20.7 mph - N/A   Overcast
2:55 PM 31.1 °F 18.6 °F 30.2 °F 96% 30.12 in 0.5 mi North 20.7 mph - N/A Snow Light Snow
3:15 PM 30.9 °F 17.8 °F 30.0 °F 96% 30.12 in 1.0 mi North 23.0 mph 26.5 mph N/A Snow Light Snow
3:35 PM 30.6 °F 16.4 °F 29.8 °F 97% 30.11 in - North 26.5 mph 31.1 mph N/A   Overcast
3:55 PM 30.2 °F 16.2 °F 29.3 °F 96% 30.13 in - North 25.3 mph 32.2 mph N/A   Overcast
4:15 PM 30.2 °F 17.4 °F 29.3 °F 96% 30.14 in 0.8 mi North 20.7 mph 28.8 mph N/A Snow Light Snow
4:35 PM 30.2 °F 18.5 °F 29.3 °F 96% 30.14 in 0.5 mi North 17.3 mph 24.2 mph N/A Snow Light Snow
4:55 PM 30.2 °F 18.1 °F 29.7 °F 98% 30.14 in - North 18.4 mph 24.2 mph N/A   Overcast
5:15 PM 30.2 °F 17.8 °F 29.8 °F 99% 30.14 in - North 19.6 mph - N/A   Overcast
5:35 PM 30.2 °F 18.5 °F 29.8 °F 99% 30.15 in - North 17.3 mph - N/A   Overcast
5:55 PM 29.5 °F 16.8 °F 29.3 °F 99% 30.16 in - North 19.6 mph 26.5 mph N/A   Overcast
6:15 PM 29.7 °F 17.1 °F 29.3 °F 99% 30.17 in - North 19.6 mph - N/A   Overcast
6:35 PM 29.3 °F 15.3 °F 29.1 °F 99% 30.17 in - North 24.2 mph 29.9 mph N/A   Overcast
6:55 PM 29.3 °F 16.2 °F 28.8 °F 98% 30.17 in - North 20.7 mph 26.5 mph N/A   Overcast
7:15 PM 28.9 °F 15.8 °F 28.4 °F 98% 30.16 in 1.0 mi North 20.7 mph - N/A Snow Light Snow
7:35 PM 29.1 °F 15.4 °F 28.4 °F 97% 30.16 in 1.0 mi NNW 23.0 mph 29.9 mph N/A Snow Light Snow
7:55 PM 28.9 °F 14.8 °F 28.2 °F 97% 30.17 in 1.2 mi NNW 24.2 mph 31.1 mph N/A Snow Light Snow
8:15 PM 28.9 °F 15.8 °F 28.4 °F 98% 30.17 in 1.2 mi NNW 20.7 mph 27.6 mph N/A Snow Light Snow
8:36 PM 28.8 °F 14.6 °F 28.0 °F 97% 30.20 in 3.0 mi NNW 24.2 mph 31.1 mph N/A Snow Light Snow
8:55 PM 28.4 °F 14.1 °F 27.9 °F 98% 30.21 in 2.5 mi NNW 24.2 mph 29.9 mph N/A Snow Light Snow
9:15 PM 28.4 °F 14.7 °F 27.5 °F 96% 30.22 in 2.5 mi NNW 21.9 mph 29.9 mph N/A Snow Light Snow
9:35 PM 28.0 °F 14.3 °F 27.3 °F 97% 30.22 in 2.5 mi NNW 21.9 mph - N/A Snow Light Snow
9:55 PM 27.5 °F 13.2 °F 26.4 °F 96% 30.21 in 3.0 mi NNW 23.0 mph 29.9 mph N/A   Overcast
10:15 PM 27.1 °F 13.4 °F 26.1 °F 96% 30.23 in 4.0 mi NNW 20.7 mph 27.6 mph N/A Snow Light Snow
10:35 PM 27.1 °F 13.8 °F 25.7 °F 94% 30.22 in 4.0 mi NNW 19.6 mph 27.6 mph N/A Snow Light Snow
10:55 PM 27.1 °F 13.1 °F 25.5 °F 94% 30.23 in 4.0 mi NNW 21.9 mph 27.6 mph N/A Snow Light Snow
11:15 PM 27.1 °F 14.1 °F 24.8 °F 91% 30.24 in 5.0 mi NNW 18.4 mph 25.3 mph N/A Snow Light Snow
11:35 PM 26.6 °F 13.1 °F 24.8 °F 93% 30.22 in 5.0 mi NNW 19.6 mph - N/A   Overcast
11:55 PM 26.6 °F 13.1 °F 24.8 °F 93% 30.22 in 7.0 mi NNW 19.6 mph 27.6 mph N/A   Overcast